This is the latest recevied weather packets stored in our database for station/object K8WEH. If no packets are shown the sender has not sent any weather packets the latest 10 day(s).
| Time | Temp. | Humidity | Pressure | Rain* | Wind** | Luminosity | Snow |
|---|---|---|---|---|---|---|---|
| 1788562525 | 28.33° C | 61% | 1012.7 hPa | 0 mm | - | - | - |
| 1788562223 | 28.33° C | 61% | 1013 hPa | 0 mm | - | - | - |
| 1788561921 | 28.33° C | 60% | 1013.3 hPa | 0 mm | - | - | - |
| 1788561619 | 28.33° C | 66% | 1013.5 hPa | 0 mm | - | - | - |
| 1788561317 | 28.33° C | 67% | 1013.5 hPa | 0 mm | - | - | - |
| 1788561017 | 28.33° C | 69% | 1013.8 hPa | 0 mm | - | - | - |
| 1788560714 | 28.89° C | 70% | 1013.8 hPa | 0 mm | - | - | - |
| 1788560414 | 28.89° C | 69% | 1014.1 hPa | 0 mm | - | - | - |
| 1788560112 | 29.44° C | 70% | 1014.5 hPa | 0 mm | - | - | - |
| 1788559811 | 29.44° C | 69% | 1014.4 hPa | 0 mm | - | - | - |
| 1788559509 | 29.44° C | 71% | 1014.5 hPa | 0 mm | - | - | - |
| 1788559208 | 30° C | 68% | 1014.3 hPa | 0 mm | - | - | - |
| 1788558906 | 30° C | 66% | 1014.2 hPa | 0 mm | - | - | - |
| 1788558605 | 30° C | 66% | 1014.3 hPa | 0 mm | - | - | - |
| 1788558304 | 30° C | 69% | 1014.7 hPa | 0 mm | - | - | - |
| 1788558002 | 30° C | 70% | 1014.7 hPa | 0 mm | - | - | - |
| 1788557760 | 30° C | 71% | 1014.7 hPa | 0 mm | - | - | - |
| 1788557459 | 30° C | 71% | 1014.8 hPa | 0 mm | - | - | - |
| 1788557158 | 30° C | 72% | 1014.8 hPa | 0 mm | - | - | - |
| 1788556856 | 30° C | 72% | 1014.8 hPa | 0 mm | - | - | - |
| 1788556555 | 30.56° C | 72% | 1014.7 hPa | 0 mm | - | - | - |
| 1788556253 | 30.56° C | 72% | 1014.7 hPa | 0 mm | - | - | - |
| 1788555952 | 30.56° C | 72% | 1014.7 hPa | 0 mm | - | - | - |
| 1788555651 | 30.56° C | 71% | 1014.6 hPa | 0 mm | - | - | - |
| 1788555350 | 30.56° C | 70% | 1014.5 hPa | 0 mm | - | - | - |
* Rain latest hour (hover to see other rain measurements)
** Current wind speed in m/s (hover to see current wind gust speed)